TimeCST,TemperatureF,Dew PointF,Humidity,Sea Level PressureIn,VisibilityMPH,Wind Direction,Wind SpeedMPH,Gust SpeedMPH,PrecipitationIn,Events,Conditions,WindDirDegrees,DateUTC
12:15 AM,30.7,20.7,66,30.09,10.0,East,11.5,-,N/A,,Mostly Cloudy,90,2013-02-21 06:15:00
12:35 AM,30.7,21.2,68,30.08,10.0,East,9.2,-,N/A,,Scattered Clouds,80,2013-02-21 06:35:00
12:55 AM,30.7,21.2,68,30.07,10.0,East,12.7,-,N/A,,Mostly Cloudy,100,2013-02-21 06:55:00
1:15 AM,30.7,21.6,69,30.07,10.0,East,10.4,18.4,N/A,,Scattered Clouds,100,2013-02-21 07:15:00
1:35 AM,30.9,21.7,69,30.05,10.0,East,11.5,17.3,N/A,,Mostly Cloudy,80,2013-02-21 07:35:00
1:55 AM,30.7,22.3,71,30.05,10.0,East,11.5,16.1,N/A,,Mostly Cloudy,90,2013-02-21 07:55:00
2:15 AM,30.7,22.5,71,30.01,10.0,East,12.7,-,N/A,,Mostly Cloudy,100,2013-02-21 08:15:00
2:35 AM,31.3,21.9,68,30.02,10.0,ESE,16.1,20.7,N/A,,Mostly Cloudy,110,2013-02-21 08:35:00
2:55 AM,32.0,21.0,64,30.01,10.0,ESE,13.8,19.6,N/A,,Overcast,110,2013-02-21 08:55:00
3:15 AM,31.8,21.0,64,29.97,10.0,East,15.0,19.6,N/A,,Mostly Cloudy,100,2013-02-21 09:15:00
3:35 AM,31.5,21.6,67,29.95,7.0,East,17.3,23.0,N/A,,Overcast,90,2013-02-21 09:35:00
3:55 AM,30.7,24.4,77,29.97,5.0,East,6.9,16.1,N/A,,Overcast,100,2013-02-21 09:55:00
4:15 AM,30.7,24.8,79,29.96,10.0,East,11.5,17.3,N/A,,Overcast,100,2013-02-21 10:15:00
4:35 AM,30.7,25.7,82,29.95,5.0,East,11.5,-,N/A,,Overcast,80,2013-02-21 10:35:00
4:55 AM,30.7,27.5,88,29.92,4.0,East,12.7,17.3,N/A,,Overcast,80,2013-02-21 10:55:00
5:15 AM,30.7,28.4,91,29.92,7.0,East,12.7,18.4,N/A,,Overcast,80,2013-02-21 11:15:00
5:55 AM,30.7,30.0,97,29.93,4.0,ESE,8.1,16.1,N/A,,Overcast,110,2013-02-21 11:55:00
6:15 AM,30.7,30.6,99,29.83,2.5,East,12.7,18.4,N/A,Thunderstorm,Overcast,90,2013-02-21 12:15:00
6:35 AM,-9999,-9999,N/A,29.84,3.0,East,15.0,21.9,N/A,Thunderstorm,Thunderstorm,100,2013-02-21 12:35:00
6:55 AM,31.8,32.0,100,29.87,5.0,East,5.8,18.4,N/A,,Overcast,80,2013-02-21 12:55:00
7:15 AM,32.0,32.0,100,29.82,4.0,East,10.4,-,N/A,,Overcast,90,2013-02-21 13:15:00
7:35 AM,31.5,31.5,100,29.98,2.5,NW,6.9,-,N/A,Thunderstorm,Overcast,320,2013-02-21 13:35:00
7:55 AM,32.0,32.0,100,29.92,1.5,NNE,4.6,-,N/A,,Overcast,30,2013-02-21 13:55:00
8:15 AM,31.5,31.6,100,29.90,0.5,NE,4.6,-,N/A,Thunderstorm,Overcast,50,2013-02-21 14:15:00
8:35 AM,30.7,30.9,100,29.91,0.8,NNE,6.9,-,N/A,Thunderstorm,Overcast,30,2013-02-21 14:35:00
8:55 AM,30.7,30.9,100,29.88,0.8,ENE,8.1,-,N/A,Thunderstorm,Overcast,60,2013-02-21 14:55:00
9:15 AM,30.7,30.9,100,29.86,0.8,East,11.5,-,N/A,Thunderstorm,Overcast,80,2013-02-21 15:15:00
9:35 AM,30.7,30.9,100,29.84,1.0,East,11.5,-,N/A,,Overcast,80,2013-02-21 15:35:00
9:55 AM,30.7,30.9,100,29.83,1.5,East,9.2,17.3,N/A,,Overcast,90,2013-02-21 15:55:00
10:15 AM,30.7,30.9,100,29.82,1.5,East,13.8,18.4,N/A,,Overcast,100,2013-02-21 16:15:00
10:35 AM,30.7,30.9,100,29.83,1.8,East,11.5,17.3,N/A,,Overcast,80,2013-02-21 16:35:00
10:55 AM,32.2,32.2,100,29.82,4.0,ESE,9.2,-,N/A,,Overcast,110,2013-02-21 16:55:00
11:15 AM,32.9,32.9,100,29.80,3.0,ESE,9.2,17.3,N/A,,Overcast,110,2013-02-21 17:15:00
11:35 AM,32.9,32.9,100,29.82,7.0,ESE,9.2,-,N/A,,Overcast,110,2013-02-21 17:35:00
11:55 AM,32.9,32.9,100,29.79,10.0,ESE,10.4,-,N/A,,Overcast,110,2013-02-21 17:55:00
12:15 PM,32.9,32.9,100,29.76,10.0,ESE,9.2,-,N/A,,Overcast,110,2013-02-21 18:15:00
12:35 PM,32.9,32.9,100,29.77,10.0,ESE,10.4,-,N/A,,Overcast,110,2013-02-21 18:35:00
12:55 PM,32.4,32.5,100,29.75,10.0,ESE,5.8,-,N/A,,Overcast,110,2013-02-21 18:55:00
1:15 PM,32.2,32.2,100,29.73,5.0,ESE,5.8,9.2,N/A,,Overcast,110,2013-02-21 19:15:00
1:35 PM,32.0,32.2,100,29.73,1.5,ESE,10.4,-,N/A,,Overcast,110,2013-02-21 19:35:00
1:55 PM,32.5,32.5,100,29.72,1.2,ESE,6.9,-,N/A,,Overcast,110,2013-02-21 19:55:00
2:15 PM,32.9,32.9,100,29.72,1.5,ESE,6.9,-,N/A,,Overcast,110,2013-02-21 20:15:00
2:35 PM,32.9,32.9,100,29.71,1.8,ESE,5.8,-,N/A,,Overcast,110,2013-02-21 20:35:00
2:55 PM,32.9,32.9,100,29.70,1.8,ESE,6.9,-,N/A,,Overcast,110,2013-02-21 20:55:00
3:15 PM,32.9,32.9,100,29.71,1.5,ESE,5.8,-,N/A,,Overcast,110,2013-02-21 21:15:00
3:35 PM,32.9,32.9,100,29.70,1.5,ESE,5.8,-,N/A,,Overcast,120,2013-02-21 21:35:00
3:55 PM,32.9,32.9,100,29.71,1.5,ESE,4.6,-,N/A,,Overcast,120,2013-02-21 21:55:00
4:15 PM,32.9,32.9,100,29.72,2.0,SE,6.9,-,N/A,,Overcast,130,2013-02-21 22:15:00
4:35 PM,32.9,32.9,100,29.71,2.0,SE,5.8,-,N/A,,Overcast,130,2013-02-21 22:35:00
4:55 PM,32.9,32.9,100,29.72,2.0,SE,4.6,-,N/A,,Overcast,130,2013-02-21 22:55:00
5:15 PM,32.9,32.9,100,29.72,2.5,SE,4.6,-,N/A,,Overcast,140,2013-02-21 23:15:00
5:35 PM,32.9,32.9,100,29.73,1.8,SSE,4.6,-,N/A,,Overcast,150,2013-02-21 23:35:00
5:55 PM,32.9,32.9,100,29.73,1.5,SE,4.6,-,N/A,,Overcast,140,2013-02-21 23:55:00
6:15 PM,32.9,32.9,100,29.73,3.0,SSE,4.6,-,N/A,,Overcast,150,2013-02-22 00:15:00
6:35 PM,32.9,32.9,100,29.74,7.0,Calm,Calm,-,N/A,,Overcast,0,2013-02-22 00:35:00
6:55 PM,32.9,32.9,100,29.74,10.0,SSE,3.5,-,N/A,,Overcast,160,2013-02-22 00:55:00
7:15 PM,33.1,33.1,100,29.74,7.0,South,3.5,-,N/A,,Overcast,170,2013-02-22 01:15:00
7:35 PM,33.6,33.6,100,29.75,4.0,South,4.6,-,N/A,,Overcast,180,2013-02-22 01:35:00
7:55 PM,34.0,34.0,100,29.75,4.0,Calm,Calm,-,N/A,,Overcast,0,2013-02-22 01:55:00
8:15 PM,35.1,-9999,N/A,29.75,2.5,SSW,3.5,-,N/A,,Overcast,200,2013-02-22 02:15:00
8:35 PM,35.6,-9999,N/A,29.75,2.0,SW,3.5,-,N/A,,Overcast,220,2013-02-22 02:35:00
8:55 PM,35.6,-9999,N/A,29.76,5.0,WSW,5.8,-,N/A,,Overcast,240,2013-02-22 02:55:00
9:15 PM,35.6,-9999,N/A,29.77,7.0,WSW,6.9,-,N/A,,Overcast,240,2013-02-22 03:15:00
9:35 PM,35.6,-9999,N/A,29.77,10.0,WSW,6.9,-,N/A,,Overcast,240,2013-02-22 03:35:00
9:55 PM,35.6,-9999,N/A,29.77,10.0,WSW,6.9,-,N/A,,Overcast,240,2013-02-22 03:55:00
10:15 PM,35.6,35.6,100,29.78,10.0,WSW,5.8,-,N/A,,Overcast,240,2013-02-22 04:15:00
10:35 PM,35.6,35.6,100,29.79,10.0,WSW,6.9,-,N/A,,Overcast,240,2013-02-22 04:35:00
10:55 PM,35.6,35.6,100,29.79,10.0,WSW,9.2,-,N/A,,Overcast,250,2013-02-22 04:55:00
11:15 PM,35.6,35.6,100,29.80,10.0,WSW,6.9,-,N/A,,Overcast,240,2013-02-22 05:15:00
11:35 PM,35.6,35.6,100,29.80,10.0,WSW,9.2,-,N/A,,Overcast,240,2013-02-22 05:35:00
11:55 PM,35.6,35.6,100,29.82,10.0,WSW,11.5,-,N/A,,Overcast,250,2013-02-22 05:55:00